Stations météo

réclame
Mon MeteoGroup
Manschnow, Allemagne (10396): Température de l'air & dewpoint: 17.07.2018 09:00:00 - 23.07.2018 09:00:00 (CEST)Manschnow, Allemagne (10396): Température de l'air 5cm & Température de l'air -5cm: 17.07.2018 09:00:00 - 23.07.2018 09:00:00 (CEST)Manschnow, Allemagne (10396): Température de l'air -20cm & Température de l'air -100cm: 17.07.2018 09:00:00 - 23.07.2018 09:00:00 (CEST)Manschnow, Allemagne (10396): Vitesse du vent & gusts: 17.07.2018 09:00:00 - 23.07.2018 09:00:00 (CEST)Manschnow, Allemagne (10396): Direction du vent: 17.07.2018 09:00:00 - 23.07.2018 09:00:00 (CEST)Manschnow, Allemagne (10396): reduced air pressure: 17.07.2018 09:00:00 - 23.07.2018 09:00:00 (CEST)Manschnow, Allemagne (10396): visibility: 17.07.2018 09:00:00 - 23.07.2018 09:00:00 (CEST)Manschnow, Allemagne (10396): Ensoleillement: 17.07.2018 09:00:00 - 23.07.2018 09:00:00 (CEST)Manschnow, Allemagne (10396): Quantités de précipitations: 17.07.2018 09:00:00 - 23.07.2018 09:00:00 (CEST)
Date & Time tt [°C] td [°C] tt 5cm [°C] tt -5cm [°C] tt -20cm [°C] tt -100cm [°C] ff [km/h] ff [knt] fx [km/h] fx [knt] dd ppp [hPa] vv [km] sd [min] rr [mm]
23.07.2018 09:00:00 21,7 16,0 26,0 24,7 22,5 18,8 7 4 15 8 WNW 1014,9 10 60 0,0
23.07.2018 08:00:00 19,8 15,6 22,3 22,1 22,6 18,8 8 4 15 8 NW 1014,7 13 60 0,0
23.07.2018 07:00:00 17,8 14,9 18,2 20,3 22,8 18,8 2 1 5 3 W 1014,7 10 45 0,0
23.07.2018 06:00:00 15,2 13,7 14,5 19,7 23,3 18,8 4 2 6 4 WNW 1014,6 9 0 0,0
23.07.2018 05:00:00 15,2 13,8 14,2 20,2 23,7 18,8 3 2 4 2 W 1014,2 11 0 0,0
23.07.2018 04:00:00 16,1 14,4 15,0 21,0 24,1 18,8 0 0 5 3 N 1014,0 14 0 0,0
23.07.2018 03:00:00 17,0 14,1 15,9 21,6 24,6 18,8 4 2 7 4 WNW 1013,9 16 0 0,0
23.07.2018 02:00:00 17,0 14,5 15,7 22,3 25,0 18,8 1 1 10 5 NW 1013,8 16 0 0,0
23.07.2018 01:00:00 19,0 14,5 17,5 23,5 25,5 18,8 7 4 14 7 W 1013,7 20 0 0,0
23.07.2018 00:00:00 19,7 16,0 19,1 24,4 25,9 18,8 4 2 7 4 WSW 1013,5 22 0 0,0
22.07.2018 23:00:00 20,2 15,7 19,2 25,3 26,4 18,8 0 0 6 3 N 1013,4 21 0 0,0
22.07.2018 22:00:00 21,1 17,2 20,1 26,5 26,8 18,8 2 1 6 4 WNW 1013,3 29 0 0,0
22.07.2018 21:00:00 23,3 12,9 21,6 28,3 27,1 18,8 3 1 10 5 NW 1012,6 26 12 0,0
22.07.2018 20:00:00 25,8 11,1 25,9 30,2 27,3 18,8 6 3 14 8 NW 1012,2 37 26 0,0
22.07.2018 19:00:00 26,0 12,2 26,9 31,9 27,2 18,8 6 4 17 9 NW 1012,1 36 10 0,0
22.07.2018 18:00:00 27,4 10,6 31,0 34,5 26,8 18,8 8 4 18 10 NNE 1012,1 35 60 0,0
22.07.2018 17:00:00 28,0 12,1 32,0 34,5 26,3 18,8 5 3 17 9 NW 1012,1 39 56 0,0
22.07.2018 16:00:00 26,6 10,3 29,4 34,3 25,7 18,8 8 4 23 12 NNW 1012,3 37 33 0,0
22.07.2018 15:00:00 26,5 10,2 30,6 33,4 25,1 18,8 10 5 23 12 NW 1012,6 34 9 0,0
22.07.2018 14:00:00 26,3 10,3 30,3 34,8 24,2 18,8 8 4 21 11 NE 1012,7 43 48 0,0
22.07.2018 13:00:00 25,8 10,3 29,6 34,0 23,2 18,7 10 5 24 13 N 1012,8 31 55 0,0
22.07.2018 12:00:00 24,7 9,7 29,2 30,4 22,4 18,7 8 4 14 7 E 1013,0 32 54 0,0
22.07.2018 11:00:00 24,0 10,4 26,9 28,6 21,7 18,7 4 2 14 7 NNE 1013,0 29 60 0,0
22.07.2018 10:00:00 22,9 10,6 26,4 25,8 21,2 18,7 5 3 11 6 NW 1013,0 23 60 0,0
22.07.2018 09:00:00 21,0 12,0 23,1 22,9 20,9 18,7 4 2 9 5 NW 1013,1 24 60 0,0
22.07.2018 08:00:00 18,9 12,6 20,5 20,5 20,9 18,7 2 1 6 3 SW 1012,9 23 57 0,0
22.07.2018 07:00:00 16,5 12,3 17,5 18,7 21,1 18,7 3 2 8 4 N 1012,8 17 12 0,0
22.07.2018 06:00:00 14,4 12,2 14,0 17,9 21,4 18,7 5 3 8 4 W 1012,6 14 0 0,0
22.07.2018 05:00:00 13,8 11,9 13,2 18,0 21,8 18,7 5 3 7 4 W 1012,2 15 0 0,0
22.07.2018 04:00:00 14,0 12,2 13,1 18,1 22,3 18,7 4 2 6 4 ENE 1012,0 18 0 0,0
22.07.2018 03:00:00 13,6 11,8 12,4 18,6 22,8 18,7 2 1 6 4 NNE 1012,1 16 0 0,0
22.07.2018 02:00:00 14,0 11,8 13,0 19,5 23,3 18,8 3 2 5 3 NW 1012,3 20 0 0,0
22.07.2018 01:00:00 15,6 12,4 13,9 20,5 23,8 18,8 5 3 7 4 W 1012,6 24 0 0,0
22.07.2018 00:00:00 16,5 13,2 15,0 21,6 24,4 18,8 4 2 6 4 NNE 1012,3 29 0 0,0
21.07.2018 23:00:00 19,9 10,5 17,6 22,6 24,9 18,8 6 3 11 6 NNE 1011,8 37 0 0,0
21.07.2018 22:00:00 21,0 10,8 18,7 24,0 25,5 18,8 6 4 11 6 NE 1011,7 35 0 0,0
21.07.2018 21:00:00 22,7 11,0 21,0 26,1 25,8 18,8 6 4 16 9 NE 1011,4 35 38 0,0
21.07.2018 20:00:00 24,5 10,2 25,0 28,6 26,0 18,8 8 4 20 11 N 1011,4 40 58 0,0
21.07.2018 19:00:00 25,7 11,0 27,3 31,0 25,9 18,8 11 6 21 11 N 1011,5 42 60 0,0
21.07.2018 18:00:00 26,0 9,9 29,6 33,5 25,4 18,8 9 5 20 11 N 1011,6 41 60 0,0
21.07.2018 17:00:00 26,3 10,5 29,9 34,0 24,8 18,8 6 4 20 11 NNW 1011,6 42 60 0,0
21.07.2018 16:00:00 26,3 11,0 31,8 34,4 23,9 18,8 8 4 18 10 NNW 1011,6 29 60 0,0
21.07.2018 15:00:00 25,9 9,8 29,4 33,4 23,0 18,8 11 6 25 13 NNW 1012,1 30 60 0,0
21.07.2018 14:00:00 25,6 10,0 30,5 31,5 22,1 18,8 10 6 22 12 NW 1012,4 38 60 0,0
21.07.2018 13:00:00 25,4 9,9 30,4 29,6 21,3 18,8 5 3 17 9 WNW 1012,6 31 60 0,0
21.07.2018 12:00:00 23,9 8,9 28,5 27,6 20,5 18,8 6 3 23 12 NE 1012,8 40 60 0,0
21.07.2018 11:00:00 23,2 9,9 25,7 25,5 19,8 18,8 7 4 18 10 ENE 1013,2 46 59 0,0
21.07.2018 10:00:00 22,1 11,5 24,7 23,9 19,2 18,8 4 2 11 6 ENE 1013,1 36 60 0,0
21.07.2018 09:00:00 20,2 13,0 22,2 20,8 18,9 18,8 4 2 9 5 NE 1013,2 39 60 0,0
21.07.2018 08:00:00 16,9 13,4 16,1 17,7 18,8 18,8 0 0 3 2 N 1013,3 22 60 0,0
21.07.2018 07:00:00 14,5 10,9 14,4 15,9 19,0 18,8 2 1 4 2 WNW 1013,1 21 47 0,0
21.07.2018 06:00:00 11,7 10,4 11,0 15,0 19,4 18,8 2 1 6 3 NNW 1013,1 11 3 0,0
21.07.2018 05:00:00 11,5 10,3 10,7 15,2 19,8 18,8 4 2 6 3 NNW 1012,9 16 0 0,0
21.07.2018 04:00:00 11,7 10,6 11,0 15,7 20,2 18,8 3 2 5 3 WNW 1013,0 13 0 0,0
21.07.2018 03:00:00 12,1 11,0 11,4 16,2 20,6 18,8 3 2 4 2 SSW 1013,0 12 0 0,0
21.07.2018 02:00:00 13,0 11,5 11,9 16,9 21,1 18,9 3 2 7 4 WNW 1013,1 20 0 0,0
21.07.2018 01:00:00 14,2 11,1 12,7 17,6 21,5 18,9 4 2 6 3 NW 1013,2 27 0 0,0
21.07.2018 00:00:00 14,7 12,3 13,4 18,4 22,0 18,9 4 2 6 3 WNW 1013,3 15 0 0,0
20.07.2018 23:00:00 15,5 13,0 14,0 19,4 22,5 18,9 4 2 5 3 W 1013,1 28 0 0,0
20.07.2018 22:00:00 17,8 13,9 15,3 20,7 22,9 18,9 3 1 9 5 NW 1012,6 37 0 0,0
20.07.2018 21:00:00 20,0 15,3 17,4 22,2 23,3 18,9 3 2 15 8 N 1012,4 32 23 0,0
20.07.2018 20:00:00 24,9 10,2 24,2 24,0 23,4 18,9 6 3 22 12 N 1012,5 47 60 0,0
20.07.2018 19:00:00 25,5 10,3 25,8 25,2 23,5 18,9 4 2 21 12 NNW 1012,4 50 39 0,0
20.07.2018 18:00:00 25,2 10,0 24,8 26,3 23,4 18,9 8 5 24 13 WNW 1012,6 53 32 0,0
20.07.2018 17:00:00 25,4 9,5 26,0 27,8 23,2 18,9 10 5 26 14 WNW 1012,9 46 48 0,0
20.07.2018 16:00:00 25,8 11,5 27,6 27,4 22,9 18,9 10 5 25 13 NW 1013,7 51 29 0,0
20.07.2018 15:00:00 25,8 10,7 27,6 28,0 22,4 18,9 11 6 29 15 NW 1014,0 54 31 0,0
20.07.2018 14:00:00 25,8 10,8 28,9 29,0 21,8 18,9 13 7 29 16 WNW 1014,3 34 55 0,0
20.07.2018 13:00:00 24,7 11,0 28,5 28,5 21,0 18,9 13 7 29 16 NW 1014,6 31 60 0,0
20.07.2018 12:00:00 23,6 10,4 27,7 27,3 20,3 18,9 16 8 26 14 WNW 1015,1 25 59 0,0
20.07.2018 11:00:00 23,2 11,0 25,8 25,7 19,5 19,0 12 6 35 19 W 1015,2 29 60 0,0
20.07.2018 10:00:00 22,2 11,5 25,2 23,2 18,9 19,0 10 5 20 11 WNW 1015,5 47 60 0,0
20.07.2018 09:00:00 20,2 11,8 22,4 20,6 18,6 19,0 6 3 14 7 NW 1015,4 36 60 0,0
20.07.2018 08:00:00 17,2 11,2 18,7 18,1 18,5 19,0 6 3 11 6 W 1015,6 35 60 0,0
20.07.2018 07:00:00 16,0 11,9 14,4 15,8 18,7 19,0 2 1 4 2 W 1015,6 22 60 0,0
20.07.2018 06:00:00 12,2 10,7 11,0 14,8 19,0 19,0 2 1 5 3 E 1015,6 21 19 0,0
20.07.2018 05:00:00 11,7 10,5 10,7 15,2 19,3 19,0 2 1 4 2 WSW 1015,6 23 0 0,0
20.07.2018 04:00:00 12,4 11,3 11,5 15,9 19,7 19,0 4 2 8 5 W 1015,6 23 0 0,0
20.07.2018 03:00:00 13,6 11,5 12,3 16,5 20,0 19,0 7 4 9 5 WNW 1015,9 23 0 0,0
20.07.2018 02:00:00 14,2 12,8 13,1 17,3 20,3 19,0 6 3 7 4 WNW 1016,3 31 0 0,0
20.07.2018 01:00:00 15,3 13,7 14,8 17,9 20,6 19,0 4 2 5 3 WSW 1016,2 28 0 0,0
20.07.2018 00:00:00 16,1 12,5 14,1 18,4 21,0 19,0 4 2 12 7 W 1016,1 48 0 0,0
19.07.2018 23:00:00 18,0 13,2 15,4 19,1 21,3 19,0 6 3 12 7 NNW 1016,1 52 0 0,0
19.07.2018 22:00:00 17,9 15,2 16,2 20,1 21,5 19,0 4 2 6 4 N 1015,8 49 0 0,0
19.07.2018 21:00:00 20,3 15,8 18,1 21,5 21,6 19,0 2 1 9 5 WNW 1015,6 51 44 0,0
19.07.2018 20:00:00 23,0 12,9 23,1 22,5 21,5 19,0 5 3 18 10 N 1015,3 70 54 0,0
19.07.2018 19:00:00 23,6 13,0 24,7 23,4 21,3 19,1 9 5 19 11 N 1015,2 65 41 0,0
19.07.2018 18:00:00 23,1 13,9 24,0 23,6 21,1 19,1 9 5 18 10 NNW 1015,4 69 0 0,0
19.07.2018 17:00:00 22,1 15,7 22,6 23,5 20,8 19,1 4 2 13 7 N 1015,8 51 0 0,0
19.07.2018 16:00:00 21,0 17,2 21,6 22,8 20,5 19,1 3 1 10 5 NNE 1016,0 25 0 0,0
19.07.2018 15:00:00 20,0 17,5 19,4 21,8 20,3 19,1 5 3 17 9 NW 1016,1 19 0 0,2
19.07.2018 14:00:00 19,0 16,8 18,7 20,8 20,2 19,1 9 5 22 12 NW 1016,2 9 0 0,1
19.07.2018 13:00:00 18,3 16,7 18,1 20,4 20,1 19,1 15 8 29 16 NW 1016,0 6 0 0,1
19.07.2018 12:00:00 18,7 17,3 18,7 20,3 20,0 19,1 12 6 29 16 NW 1015,5 4,5 0 0,6
19.07.2018 11:00:00 18,8 17,6 18,9 19,8 20,0 19,1 13 7 26 14 NW 1015,2 2,7 0 0,2
19.07.2018 10:00:00 18,9 17,1 18,6 19,4 19,9 19,1 10 5 27 15 WNW 1014,9 9 0 0,0
19.07.2018 09:00:00 18,8 16,4 18,9 19,1 19,9 19,1 13 7 31 17 NW 1014,6 21 0 0,0
19.07.2018 08:00:00 18,4 16,0 18,3 18,4 20,0 19,1 12 7 29 16 WNW 1014,5 21 0 0,0
19.07.2018 07:00:00 18,2 15,5 17,8 17,9 20,1 19,1 11 6 20 11 NW 1014,3 27 0 0,0
19.07.2018 06:00:00 16,9 14,3 16,7 17,1 20,4 19,1 9 5 18 10 WNW 1014,2 26 0 0,0
19.07.2018 05:00:00 16,2 13,7 15,3 17,2 20,7 19,1 9 5 15 8 WNW 1014,1 28 0 0,0
19.07.2018 04:00:00 16,3 13,6 15,2 17,6 21,0 19,1 8 4 15 8 WNW 1014,2 26 0 0,0
19.07.2018 03:00:00 15,8 13,5 14,9 18,0 21,3 19,1 8 4 13 7 WNW 1014,3 22 0 0,0
19.07.2018 02:00:00 16,8 13,8 15,9 18,5 21,7 19,1 9 5 13 7 WNW 1014,4 25 0 0,0
19.07.2018 01:00:00 16,8 14,6 15,7 19,1 22,0 19,1 8 5 11 6 WNW 1014,4 17 0 0,0
19.07.2018 00:00:00 17,3 15,3 16,3 19,8 22,4 19,1 7 4 9 5 W 1014,5 10 0 0,0
18.07.2018 23:00:00 17,9 15,7 16,7 20,5 22,7 19,1 4 2 8 4 WNW 1014,1 18 0 0,0
18.07.2018 22:00:00 19,6 16,1 17,8 21,3 23,1 19,1 4 2 11 6 NW 1014,1 23 0 0,0
18.07.2018 21:00:00 22,5 15,4 21,0 22,3 23,3 19,1 6 3 20 11 NNW 1013,9 37 0 0,0
18.07.2018 20:00:00 24,0 14,7 23,0 23,6 23,5 19,1 10 5 26 14 NNW 1013,4 42 0 0,0
18.07.2018 19:00:00 24,6 14,9 24,3 25,1 23,4 19,1 13 7 32 17 NW 1013,0 44 46 0,0
18.07.2018 18:00:00 26,7 14,5 28,8 27,1 23,1 19,1 11 6 32 17 NW 1012,9 44 56 0,0
18.07.2018 17:00:00 26,5 14,9 29,1 26,8 22,7 19,1 16 8 27 14 NW 1012,9 35 35 0,0
18.07.2018 16:00:00 24,1 15,5 26,1 26,2 22,4 19,1 13 7 27 14 NNW 1013,2 36 3 0,0
18.07.2018 15:00:00 23,7 16,4 25,2 26,1 22,0 19,1 12 7 27 15 NW 1013,3 32 2 0,0
18.07.2018 14:00:00 21,4 18,6 21,6 23,6 21,7 19,1 6 3 24 13 N 1013,3 12 0 -
18.07.2018 13:00:00 21,6 17,2 23,0 23,9 21,4 19,1 11 6 34 18 NW 1013,5 22 0 0,0
18.07.2018 12:00:00 20,5 17,2 21,9 22,8 21,2 19,1 15 8 28 15 NW 1013,3 - 0 0,0
18.07.2018 11:00:00 19,8 18,2 20,2 22,1 21,1 19,1 15 8 32 17 NW 1013,1 - 0 -
18.07.2018 10:00:00 19,2 18,5 19,4 21,1 21,0 19,1 14 8 26 14 NW 1012,8 - 0 0,1
18.07.2018 09:00:00 18,7 18,4 18,5 20,5 21,0 19,1 11 6 24 13 NW 1012,5 - 0 0,4
18.07.2018 08:00:00 18,6 18,2 18,5 20,0 21,1 19,1 8 5 26 14 NW 1011,9 - 0 0,9
18.07.2018 07:00:00 18,3 18,1 18,0 19,5 21,2 19,0 10 6 21 11 NW 1011,4 - 0 1,2
18.07.2018 06:00:00 18,1 17,9 17,7 19,3 21,4 19,0 9 5 20 11 NW 1011,1 - 0 0,8
18.07.2018 05:00:00 18,2 17,7 17,6 19,5 21,6 19,0 9 5 18 10 NW 1010,9 - 0 0,9
18.07.2018 04:00:00 18,5 17,4 17,7 19,6 21,8 19,0 9 5 17 9 WNW 1010,6 - 0 0,2
18.07.2018 03:00:00 18,8 17,2 18,4 19,8 22,0 19,0 9 5 17 9 WNW 1010,4 - 0 0,0
18.07.2018 02:00:00 18,6 17,5 18,2 20,1 22,2 19,0 9 5 14 8 WNW 1010,5 - 0 0,0
18.07.2018 01:00:00 18,9 17,8 18,5 20,4 22,4 19,0 7 4 12 7 WNW 1010,7 - 0 0,0
18.07.2018 00:00:00 18,9 18,0 18,5 20,7 22,7 19,0 7 4 13 7 WNW 1010,8 - 0 0,0
17.07.2018 23:00:00 19,8 17,8 19,3 21,0 22,9 19,0 7 4 16 9 NNW 1010,8 - 0 0,0
17.07.2018 22:00:00 19,1 18,1 18,5 21,3 23,2 19,0 5 3 12 7 WNW 1010,7 - 0 0,0
17.07.2018 21:00:00 20,4 18,0 19,7 22,0 23,4 19,0 5 3 13 7 NW 1010,8 - 0 0,0
17.07.2018 20:00:00 20,9 18,2 20,5 22,5 23,6 19,0 5 3 22 12 NNW 1010,7 - 0 0,0
17.07.2018 19:00:00 22,1 17,8 21,8 23,1 23,8 18,9 9 5 24 13 NNW 1010,7 - 0 0,0
17.07.2018 18:00:00 21,9 18,0 21,8 23,6 24,0 18,9 11 6 29 16 N 1010,8 - 0 0,0
17.07.2018 17:00:00 23,1 17,0 23,2 24,6 24,1 18,9 14 8 29 16 NNW 1010,6 - 0 0,0
17.07.2018 16:00:00 22,6 17,2 22,7 25,5 24,0 18,9 11 6 35 19 NNW 1010,7 - 0 0,0
17.07.2018 15:00:00 24,4 16,8 25,8 25,8 23,9 18,9 13 7 28 15 NNW 1010,8 - 0 0,0
17.07.2018 14:00:00 - - - - - - - - - - - - - - -
17.07.2018 13:00:00 23,2 17,0 24,3 25,8 23,6 18,9 8 4 21 11 NNW 1011,0 - 3 0,0
17.07.2018 12:00:00 23,7 16,8 26,0 27,0 23,2 18,8 12 6 21 12 N 1010,9 - 24 0,0
17.07.2018 11:00:00 23,5 17,9 25,7 26,2 22,8 18,8 9 5 22 12 NNW 1010,9 - 49 0,0
17.07.2018 10:00:00 20,6 17,7 22,1 23,1 22,8 18,8 6 3 16 9 NW 1011,0 - 0 0,0
17.07.2018 09:00:00 19,3 17,5 20,0 22,2 22,8 18,8 6 4 13 7 NW 1011,2 - 0 0,0

tt = Température de l'air
td = dewpoint
tt 5cm = Température de l'air 5cm
tt -5cm = Température de l'air -5cm
tt -20cm = Température de l'air -20cm
tt -100cm = Température de l'air -100cm
ff = Vitesse du vent
fx = gusts
dd = Direction du vent
ppp = reduced air pressure
vv = visibility
sd = Ensoleillement
rr = Quantités de précipitations

stations d'obs. à proximité